Time,TemperatureF,DewpointF,PressureIn,WindDirection,WindDirectionDegrees,WindSpeedMPH,WindSpeedGustMPH,Humidity,HourlyPrecipIn,Conditions,Clouds,dailyrainin,SoftwareType,DateUTC
2017-03-27 00:05:00,48.1,46.0,29.91,South,169,8.0,16.0,93,0.00,,,0.00,weatherlink.com 1.10,2017-03-27 04:05:00,
2017-03-27 00:20:00,48.2,46.0,29.90,South,178,8.0,20.0,93,0.00,,,0.00,weatherlink.com 1.10,2017-03-27 04:20:00,
2017-03-27 00:35:00,48.2,46.0,29.89,SSE,162,9.0,16.0,93,0.00,,,0.00,weatherlink.com 1.10,2017-03-27 04:35:00,
2017-03-27 00:50:00,48.2,47.0,29.89,South,186,6.0,17.0,94,0.00,,,0.00,weatherlink.com 1.10,2017-03-27 04:50:00,
2017-03-27 01:05:00,48.3,47.0,29.89,SSE,162,8.0,18.0,94,0.01,,,0.01,weatherlink.com 1.10,2017-03-27 05:05:00,
2017-03-27 01:21:00,48.2,47.0,29.88,SSE,153,11.0,16.0,94,0.01,,,0.01,weatherlink.com 1.10,2017-03-27 05:21:00,
2017-03-27 01:36:00,48.2,47.0,29.88,SSE,158,8.0,19.0,94,0.02,,,0.02,weatherlink.com 1.10,2017-03-27 05:36:00,
2017-03-27 01:51:00,48.2,47.0,29.87,SE,145,9.0,19.0,95,0.03,,,0.03,weatherlink.com 1.10,2017-03-27 05:51:00,
2017-03-27 02:06:00,48.1,47.0,29.87,SSE,155,13.0,16.0,95,0.02,,,0.03,weatherlink.com 1.10,2017-03-27 06:06:00,
2017-03-27 02:21:00,47.8,47.0,29.86,SSE,152,13.0,18.0,95,0.03,,,0.04,weatherlink.com 1.10,2017-03-27 06:21:00,
2017-03-27 02:36:00,47.7,46.0,29.86,SE,144,11.0,16.0,95,0.02,,,0.04,weatherlink.com 1.10,2017-03-27 06:36:00,
2017-03-27 02:51:00,47.7,46.0,29.85,SSE,157,8.0,15.0,95,0.01,,,0.04,weatherlink.com 1.10,2017-03-27 06:51:00,
2017-03-27 03:06:00,47.4,46.0,29.85,SE,144,10.0,15.0,95,0.00,,,0.04,weatherlink.com 1.10,2017-03-27 07:06:00,
2017-03-27 03:21:00,47.3,46.0,29.85,SSE,153,12.0,16.0,95,0.00,,,0.04,weatherlink.com 1.10,2017-03-27 07:21:00,
2017-03-27 03:36:00,47.4,46.0,29.86,SSE,154,8.0,14.0,95,0.00,,,0.04,weatherlink.com 1.10,2017-03-27 07:36:00,
2017-03-27 03:51:00,47.5,46.0,29.86,SE,140,6.0,13.0,95,0.00,,,0.04,weatherlink.com 1.10,2017-03-27 07:51:00,
2017-03-27 04:06:00,47.4,46.0,29.86,SSE,157,8.0,13.0,95,0.00,,,0.04,weatherlink.com 1.10,2017-03-27 08:06:00,
2017-03-27 04:21:00,47.4,46.0,29.85,SSE,159,9.0,11.0,95,0.00,,,0.04,weatherlink.com 1.10,2017-03-27 08:21:00,
2017-03-27 04:36:00,47.4,46.0,29.85,SSE,153,5.0,9.0,95,0.00,,,0.04,weatherlink.com 1.10,2017-03-27 08:36:00,
2017-03-27 04:51:00,47.5,46.0,29.85,SE,144,7.0,11.0,95,0.00,,,0.04,weatherlink.com 1.10,2017-03-27 08:51:00,
2017-03-27 05:06:00,47.6,46.0,29.85,SSE,148,4.0,11.0,95,0.00,,,0.04,weatherlink.com 1.10,2017-03-27 09:06:00,
2017-03-27 05:21:00,47.6,46.0,29.85,SSE,150,5.0,9.0,95,0.00,,,0.04,weatherlink.com 1.10,2017-03-27 09:21:00,
2017-03-27 05:36:00,47.8,47.0,29.85,SSE,167,7.0,9.0,96,0.00,,,0.04,weatherlink.com 1.10,2017-03-27 09:36:00,
2017-03-27 05:51:00,48.0,47.0,29.86,SSE,167,5.0,9.0,96,0.00,,,0.04,weatherlink.com 1.10,2017-03-27 09:51:00,
2017-03-27 06:06:00,48.1,47.0,29.86,SSE,163,5.0,10.0,96,0.00,,,0.04,weatherlink.com 1.10,2017-03-27 10:06:00,
2017-03-27 06:21:00,48.4,47.0,29.86,SSE,161,4.0,9.0,96,0.00,,,0.04,weatherlink.com 1.10,2017-03-27 10:21:00,
2017-03-27 06:36:00,48.6,48.0,29.86,SSE,162,6.0,9.0,96,0.00,,,0.04,weatherlink.com 1.10,2017-03-27 10:36:00,
2017-03-27 06:51:00,48.6,48.0,29.86,SSE,154,6.0,10.0,96,0.00,,,0.04,weatherlink.com 1.10,2017-03-27 10:51:00,
2017-03-27 07:06:00,49.2,48.0,29.87,South,179,5.0,8.0,96,0.00,,,0.04,weatherlink.com 1.10,2017-03-27 11:06:00,
2017-03-27 07:21:00,50.0,49.0,29.88,South,181,7.0,10.0,96,0.00,,,0.04,weatherlink.com 1.10,2017-03-27 11:21:00,
2017-03-27 07:36:00,50.3,49.0,29.87,SSE,166,3.0,9.0,96,0.00,,,0.04,weatherlink.com 1.10,2017-03-27 11:36:00,
2017-03-27 07:51:00,50.5,49.0,29.88,SSW,203,5.0,7.0,96,0.00,,,0.04,weatherlink.com 1.10,2017-03-27 11:51:00,
2017-03-27 08:06:00,51.1,50.0,29.88,SSW,194,6.0,10.0,96,0.00,,,0.04,weatherlink.com 1.10,2017-03-27 12:06:00,
2017-03-27 08:21:00,51.4,50.0,29.88,SSW,204,6.0,10.0,96,0.00,,,0.04,weatherlink.com 1.10,2017-03-27 12:21:00,
2017-03-27 08:36:00,51.8,51.0,29.87,SW,218,6.0,12.0,96,0.00,,,0.04,weatherlink.com 1.10,2017-03-27 12:36:00,
2017-03-27 08:51:00,52.1,51.0,29.87,SSW,202,7.0,11.0,96,0.00,,,0.04,weatherlink.com 1.10,2017-03-27 12:51:00,
2017-03-27 09:06:00,52.2,51.0,29.87,SSW,213,6.0,12.0,95,0.00,,,0.04,weatherlink.com 1.10,2017-03-27 13:06:00,
2017-03-27 09:21:00,52.4,51.0,29.87,WSW,244,7.0,15.0,95,0.00,,,0.04,weatherlink.com 1.10,2017-03-27 13:21:00,